Manchester, NH

1:08 AM EDT on August 26, 2016 (GMT -0400)
Manchester

Weather History for KMHT - September, 2013

Change the Weather History Date:

Thursday, September 12, 2013

  Actual Average Record
Temperature  
Mean Temperature 74 °F -  
Max Temperature 82 °F 74 °F 93 °F (1983)
Min Temperature 66 °F 54 °F 34 °F (1958)
Degree Days  
Heating Degree Days 0    
Cooling Degree Days 8    
Growing Degree Days 24 (Base 50)    
Moisture  
Dew Point 68 °F    
Average Humidity 87    
Maximum Humidity 100    
Minimum Humidity 77    
Precipitation  
Precipitation 2.99 in 0.13 in 3.72 in (1960)
Month to date precipitation 1.40  
Year to date precipitation 30.66  
Snow  
Snow 0.00 in - - ()
Month to date snowfall  
Since 1 July snowfall  
Snow Depth -    
Sea Level Pressure  
Sea Level Pressure 29.78 in    
Wind  
Wind Speed 5 mph (SSW)    
Max Wind Speed 13 mph    
Max Gust Speed 36 mph    
Visibility 6 miles    
Events Rain , Thunderstorm    
T = Trace of Precipitation, MM = Missing Value Source: NWS Daily Summary

Daily Weather History Graph

Daily Weather History Graph

Search for Another Location

Airport or City:

Trip Planner

Search our weather history database for the weather conditions in past years. The results will help you decide how hot, cold, wet, or windy it might be!

Date:

Astronomy

Sep. 12, 2013 Rise Set
Actual Time 6:22 AM EDT 7:00 PM EDT
Civil Twilight 5:53 AM EDT 7:29 PM EDT
Nautical Twilight 5:19 AM EDT 8:02 PM EDT
Astronomical Twilight 4:44 AM EDT 8:37 PM EDT
Moon 1:56 PM EDT (9/12) 11:43 PM EDT (9/12)
Length of Visible Light 13h 35m
Length of Day
12h 38m
Waxing Crescent, 50% of the Moon is Illuminated
Sep 12
Waxing Crescent
Sep 12
First Quarter
Sep 19
Full
Sep 26
Last Quarter
Oct 4
New

Hourly Weather History & Observations

Time (EDT) Temp. Heat Index Dew Point Humidity Pressure Visibility Wind Dir Wind Speed Gust Speed Precip Events Conditions
12:53 AM 72.0 °F - 69.1 °F 91% 29.95 in 10.0 mi South 3.5 mph - N/A   Clear
1:53 AM 72.0 °F - 68.0 °F 87% 29.92 in 10.0 mi South 4.6 mph - N/A   Clear
2:53 AM 71.1 °F - 69.1 °F 93% 29.94 in 10.0 mi South 3.5 mph - N/A   Clear
3:53 AM 71.1 °F - 68.0 °F 90% 29.94 in 10.0 mi South 3.5 mph - N/A   Clear
4:53 AM 71.1 °F - 66.9 °F 87% 29.94 in 10.0 mi Calm Calm - N/A   Clear
5:53 AM 71.1 °F - 66.9 °F 87% 29.93 in 10.0 mi SSE 3.5 mph - N/A   Mostly Cloudy
6:53 AM 71.1 °F - 66.0 °F 84% 29.91 in 10.0 mi South 3.5 mph - N/A   Mostly Cloudy
7:53 AM 72.0 °F - 66.9 °F 84% 29.91 in 10.0 mi Calm Calm - N/A   Mostly Cloudy
8:53 AM 75.0 °F - 68.0 °F 79% 29.89 in 10.0 mi South 4.6 mph - N/A   Scattered Clouds
9:53 AM 77.0 °F - 70.0 °F 79% 29.87 in 10.0 mi SSW 5.8 mph - N/A   Mostly Cloudy
10:53 AM 79.0 °F - 71.1 °F 77% 29.86 in 9.0 mi SSW 6.9 mph - 0.00 in Rain Light Rain
11:45 AM 78.8 °F - 71.6 °F 78% 29.82 in 4.0 mi West 5.8 mph - 0.02 in Rain , Thunderstorm Thunderstorms and Rain
11:53 AM 75.9 °F - 73.0 °F 91% 29.86 in 1.5 mi WSW 8.1 mph - 0.12 in Rain , Thunderstorm Heavy Thunderstorms and Rain
12:11 PM 73.4 °F - 71.6 °F 94% 29.80 in 1.2 mi Variable 6.9 mph - 0.22 in Rain , Thunderstorm Light Thunderstorms and Rain
12:13 PM 75.2 °F - 71.6 °F 89% 29.80 in 2.5 mi SW 8.1 mph - 0.22 in Rain , Thunderstorm Light Thunderstorms and Rain
12:15 PM 75.2 °F - 71.6 °F 89% 29.80 in 5.0 mi Variable 5.8 mph - 0.22 in Rain , Thunderstorm Light Thunderstorms and Rain
12:53 PM 77.0 °F - 72.0 °F 84% 29.82 in 10.0 mi Variable 3.5 mph - 0.22 in   Mostly Cloudy
1:53 PM 81.0 °F 86.7 °F 75.0 °F 82% 29.77 in 6.0 mi SE 5.8 mph - 0.00 in   Haze
1:59 PM 80.6 °F 85.4 °F 73.4 °F 79% 29.76 in 5.0 mi South 10.4 mph - 0.03 in Rain , Thunderstorm Light Thunderstorms and Rain
2:02 PM 80.6 °F 86.2 °F 75.2 °F 84% 29.77 in 1.8 mi West 11.5 mph 19.6 mph 0.12 in Rain , Thunderstorm Heavy Thunderstorms and Rain
2:06 PM 75.2 °F - 69.8 °F 83% 29.73 in 0.5 mi NW 11.5 mph 35.7 mph 0.43 in Rain , Thunderstorm Heavy Thunderstorms and Rain
2:09 PM 73.4 °F - 66.2 °F 78% 29.76 in 0.2 mi West 9.2 mph 35.7 mph 0.48 in Rain , Thunderstorm Heavy Thunderstorms and Rain
2:14 PM 75.2 °F - 68.0 °F 78% 29.77 in 2.5 mi SW 9.2 mph 17.3 mph 0.53 in Rain , Thunderstorm Heavy Thunderstorms and Rain
2:53 PM 73.9 °F - 70.0 °F 87% 29.78 in 10.0 mi West 8.1 mph - 0.75 in Rain , Thunderstorm Light Thunderstorms and Rain
3:12 PM 73.4 °F - 66.2 °F 78% 29.76 in 1.0 mi West 12.7 mph 23.0 mph 0.04 in Rain , Thunderstorm Heavy Thunderstorms and Rain
3:33 PM 71.6 °F - 66.2 °F 83% 29.74 in 4.0 mi West 6.9 mph 17.3 mph 0.45 in Rain , Thunderstorm Light Thunderstorms and Rain
3:53 PM 71.1 °F - 66.0 °F 84% 29.77 in 6.0 mi Calm Calm - 0.53 in Rain , Thunderstorm Light Thunderstorms and Rain
4:03 PM 69.8 °F - 66.2 °F 88% 29.74 in 8.0 mi Calm Calm - 0.11 in Rain Heavy Rain
4:29 PM 71.6 °F - 66.2 °F 83% 29.72 in 10.0 mi Calm Calm - 0.12 in Thunderstorm Thunderstorm
4:53 PM 71.1 °F - 68.0 °F 90% 29.74 in 10.0 mi East 3.5 mph - 0.12 in   Mostly Cloudy
5:53 PM 72.0 °F - 66.9 °F 84% 29.74 in 6.0 mi West 6.9 mph - 0.00 in Rain Light Rain
6:12 PM 71.6 °F - 66.2 °F 83% 29.72 in 1.2 mi West 4.6 mph - 0.09 in Rain Heavy Rain
6:16 PM 69.8 °F - 66.2 °F 88% 29.72 in 2.0 mi Variable 4.6 mph - 0.17 in Rain , Thunderstorm Heavy Thunderstorms and Rain
6:21 PM 69.8 °F - 66.2 °F 88% 29.71 in 4.0 mi Variable 3.5 mph - 0.17 in Rain , Thunderstorm Light Thunderstorms and Rain
6:43 PM 71.6 °F - 66.2 °F 83% 29.69 in 10.0 mi NW 4.6 mph - 0.18 in   Mostly Cloudy
6:53 PM 71.1 °F - 66.0 °F 84% 29.72 in 10.0 mi NNW 3.5 mph - 0.18 in   Mostly Cloudy
7:53 PM 69.1 °F - 68.0 °F 96% 29.72 in 10.0 mi Calm Calm - 0.02 in Rain Light Rain
8:00 PM 69.8 °F - 66.2 °F 88% 29.69 in 1.5 mi Calm Calm - 0.12 in Rain Heavy Rain
8:12 PM 68.0 °F - 66.2 °F 94% 29.71 in 0.8 mi Calm Calm - 0.42 in Rain Heavy Rain
8:18 PM 68.0 °F - 66.2 °F 94% 29.70 in 1.0 mi Calm Calm - 0.55 in Rain , Thunderstorm Heavy Thunderstorms and Rain
8:24 PM 68.0 °F - 66.2 °F 94% 29.71 in 5.0 mi NW 3.5 mph - 0.58 in Rain , Thunderstorm Light Thunderstorms and Rain
8:53 PM 68.0 °F - 66.9 °F 96% 29.73 in 6.0 mi SSE 5.8 mph - 0.81 in Rain , Thunderstorm Thunderstorms and Rain
9:09 PM 68.0 °F - 66.2 °F 94% 29.69 in 10.0 mi ESE 5.8 mph - 0.01 in Rain Light Rain
9:44 PM 68.0 °F - 66.2 °F 94% 29.70 in 7.0 mi SSE 6.9 mph - 0.05 in Rain , Thunderstorm Light Thunderstorms and Rain
9:53 PM 68.0 °F - 66.0 °F 93% 29.72 in 5.0 mi SE 3.5 mph - 0.05 in Rain , Thunderstorm Light Thunderstorms and Rain
10:23 PM 66.2 °F - 66.2 °F 100% 29.69 in 5.0 mi South 4.6 mph - 0.02 in Rain Light Rain
10:53 PM 66.9 °F - 66.0 °F 97% 29.72 in 1.0 mi South 5.8 mph - 0.07 in Rain , Thunderstorm Thunderstorms and Rain
11:17 PM 66.2 °F - 64.4 °F 94% 29.69 in 1.0 mi SSE 6.9 mph - 0.08 in Rain Rain
11:40 PM 66.2 °F - 64.4 °F 94% 29.67 in 3.0 mi ESE 5.8 mph - 0.10 in Rain Light Rain
11:53 PM 66.0 °F - 64.9 °F 96% 29.69 in 3.0 mi SE 6.9 mph - 0.12 in Rain Light Rain